AVA9711 SKBG-SKBO

Flight info

Callsign AVA9711
Flight time 0h 31m
Altitude 22000
Route UMKAG1A UMKAG Z010 AKSOK G431 ILSEV ILSEV5E
Aircraft A320/M-SDE3FGHIRWY/LB1

Departure

Time 2026-05-04 20:43
Airport Palonegro Airport (SKBG)

Arrival

Time 2026-05-04 21:14
Airport El Dorado International Airport (SKBO)
Time Latitude Longitude Altitude Speed Heading
2026-05-04 19:56 7.12735 -73.18159 3905 ft 0 kts
2026-05-04 20:00 7.12734 -73.18159 3905 ft 0 kts
2026-05-04 20:25 7.12718 -73.18162 3901 ft 4 kts 11°
2026-05-04 20:25 7.12692 -73.18165 3902 ft 4 kts 344°
2026-05-04 20:26 7.12682 -73.18159 3902 ft 0 kts 280°
2026-05-04 20:26 7.12686 -73.18184 3903 ft 4 kts 280°
2026-05-04 20:26 7.12691 -73.18211 3904 ft 4 kts 280°
2026-05-04 20:26 7.12696 -73.18238 3903 ft 4 kts 281°
2026-05-04 20:27 7.12699 -73.18253 3903 ft 0 kts 281°
2026-05-04 20:39 7.12700 -73.18259 3905 ft 2 kts 280°
2026-05-04 20:39 7.12690 -73.18288 3902 ft 10 kts 239°
2026-05-04 20:40 7.12676 -73.18375 3903 ft 8 kts 210°
2026-05-04 20:40 7.12612 -73.18358 3901 ft 14 kts 159°
2026-05-04 20:40 7.12490 -73.18312 3895 ft 24 kts 160°
2026-05-04 20:40 7.12324 -73.18252 3889 ft 18 kts 171°
2026-05-04 20:41 7.12283 -73.18304 3888 ft 8 kts 246°
2026-05-04 20:41 7.12219 -73.18315 3886 ft 15 kts 161°
2026-05-04 20:41 7.12083 -73.18263 3881 ft 26 kts 159°
2026-05-04 20:41 7.11887 -73.18188 3871 ft 32 kts 159°
2026-05-04 20:42 7.11737 -73.18120 3867 ft 12 kts 130°
2026-05-04 20:42 7.11705 -73.18124 3865 ft 7 kts 301°
2026-05-04 20:42 7.11828 -73.18167 3867 ft 41 kts 340°
2026-05-04 20:42 7.12341 -73.18361 3892 ft 113 kts 340°
2026-05-04 20:43 7.13253 -73.18705 4032 ft 158 kts 340°
2026-05-04 20:43 7.14283 -73.19088 4792 ft 157 kts 342°
2026-05-04 20:43 7.15280 -73.19449 5470 ft 147 kts 341°
2026-05-04 20:43 7.16226 -73.19782 6072 ft 143 kts 341°
2026-05-04 20:44 7.17164 -73.20105 6624 ft 142 kts 341°
2026-05-04 20:44 7.18095 -73.20456 7116 ft 145 kts 335°
2026-05-04 20:44 7.18867 -73.21181 7413 ft 167 kts 294°
2026-05-04 20:44 7.18858 -73.22399 7671 ft 193 kts 245°
2026-05-04 20:45 7.17915 -73.23461 7921 ft 217 kts 220°
2026-05-04 20:45 7.16597 -73.24376 8150 ft 244 kts 213°
2026-05-04 20:45 7.15076 -73.25307 8540 ft 268 kts 212°
2026-05-04 20:45 7.13412 -73.26310 9005 ft 289 kts 212°
2026-05-04 20:46 7.11661 -73.27385 9669 ft 299 kts 212°
2026-05-04 20:46 7.09891 -73.28500 10418 ft 302 kts 212°
2026-05-04 20:46 7.08106 -73.29645 11157 ft 306 kts 212°
2026-05-04 20:46 7.06301 -73.30818 11850 ft 311 kts 212°
2026-05-04 20:47 7.04478 -73.32013 12603 ft 314 kts 212°
2026-05-04 20:47 7.02642 -73.33223 13280 ft 318 kts 212°
2026-05-04 20:47 7.00753 -73.34468 13672 ft 335 kts 212°
2026-05-04 20:47 6.98735 -73.35794 13816 ft 357 kts 212°
2026-05-04 20:48 6.96602 -73.37194 14044 ft 372 kts 212°
2026-05-04 20:48 6.94417 -73.38632 14550 ft 378 kts 212°
2026-05-04 20:48 6.92203 -73.40089 15114 ft 382 kts 212°
2026-05-04 20:48 6.89967 -73.41560 15694 ft 386 kts 212°
2026-05-04 20:49 6.87708 -73.43047 16253 ft 389 kts 212°
2026-05-04 20:49 6.85433 -73.44543 16805 ft 393 kts 212°
2026-05-04 20:49 6.83130 -73.46054 17383 ft 397 kts 211°
2026-05-04 20:49 6.80804 -73.47581 17933 ft 401 kts 211°
2026-05-04 20:50 6.78457 -73.49123 18418 ft 405 kts 211°
2026-05-04 20:50 6.76086 -73.50680 18883 ft 408 kts 212°
2026-05-04 20:50 6.73703 -73.52243 19326 ft 411 kts 212°
2026-05-04 20:50 6.71299 -73.53821 19798 ft 413 kts 212°
2026-05-04 20:51 6.68886 -73.55406 20286 ft 416 kts 212°
2026-05-04 20:51 6.66455 -73.57002 20743 ft 419 kts 212°
2026-05-04 20:51 6.64010 -73.58607 21173 ft 421 kts 212°
2026-05-04 20:51 6.61546 -73.60219 21535 ft 423 kts 212°
2026-05-04 20:52 6.59076 -73.61834 21851 ft 426 kts 212°
2026-05-04 20:52 6.56583 -73.63466 21962 ft 430 kts 212°
2026-05-04 20:52 6.54091 -73.65098 21970 ft 434 kts 212°
2026-05-04 20:52 6.51560 -73.66758 21942 ft 435 kts 212°
2026-05-04 20:53 6.49032 -73.68418 21945 ft 434 kts 212°
2026-05-04 20:53 6.46500 -73.70079 21945 ft 434 kts 212°
2026-05-04 20:53 6.43972 -73.71739 21944 ft 434 kts 212°
2026-05-04 20:53 6.41441 -73.73399 21979 ft 434 kts 212°
2026-05-04 20:54 6.38910 -73.75058 21980 ft 434 kts 212°
2026-05-04 20:54 6.36379 -73.76719 21980 ft 434 kts 212°
2026-05-04 20:54 6.33844 -73.78381 21979 ft 434 kts 212°
2026-05-04 20:54 6.31314 -73.80041 21948 ft 434 kts 212°
2026-05-04 20:55 6.28787 -73.81698 21946 ft 434 kts 212°
2026-05-04 20:55 6.26254 -73.83358 21988 ft 434 kts 212°
2026-05-04 20:55 6.23727 -73.85011 21978 ft 434 kts 212°
2026-05-04 20:55 6.21198 -73.86664 21986 ft 434 kts 212°
2026-05-04 20:56 6.18667 -73.88319 21990 ft 433 kts 212°
2026-05-04 20:56 6.16141 -73.89969 21991 ft 433 kts 212°
2026-05-04 20:56 6.13615 -73.91621 22033 ft 433 kts 212°
2026-05-04 20:56 6.11095 -73.93272 22028 ft 433 kts 212°
2026-05-04 20:57 6.08569 -73.94925 22008 ft 433 kts 212°
2026-05-04 20:57 6.06048 -73.96575 22001 ft 433 kts 212°
2026-05-04 20:57 6.03507 -73.98194 22004 ft 432 kts 208°
2026-05-04 20:57 6.00784 -73.99442 21997 ft 430 kts 198°
2026-05-04 20:58 5.97931 -74.00199 22050 ft 428 kts 189°
2026-05-04 20:58 5.95004 -74.00744 22050 ft 428 kts 189°
2026-05-04 20:58 5.92072 -74.01291 22049 ft 428 kts 189°
2026-05-04 20:58 5.89142 -74.01843 22042 ft 428 kts 189°
2026-05-04 20:59 5.86213 -74.02402 22048 ft 429 kts 189°
2026-05-04 20:59 5.83286 -74.02963 22079 ft 429 kts 189°
2026-05-04 20:59 5.80356 -74.03523 22086 ft 428 kts 189°
2026-05-04 20:59 5.77425 -74.04079 22089 ft 428 kts 189°
2026-05-04 21:00 5.74497 -74.04632 22081 ft 428 kts 189°
2026-05-04 21:00 5.71575 -74.05186 22084 ft 428 kts 189°
2026-05-04 21:00 5.68652 -74.05741 22118 ft 428 kts 189°
2026-05-04 21:00 5.65722 -74.06298 22118 ft 428 kts 189°
2026-05-04 21:01 5.63786 -74.06665 22124 ft 428 kts 189°
2026-05-04 21:01 5.60862 -74.07220 22113 ft 428 kts 189°
2026-05-04 21:01 5.57940 -74.07773 22075 ft 427 kts 189°
2026-05-04 21:01 5.55017 -74.08326 22120 ft 427 kts 189°
2026-05-04 21:02 5.52094 -74.08879 22110 ft 427 kts 189°
2026-05-04 21:02 5.49170 -74.09436 22113 ft 428 kts 189°
2026-05-04 21:02 5.46246 -74.09996 22116 ft 428 kts 189°
2026-05-04 21:02 5.43396 -74.10871 22107 ft 432 kts 202°
2026-05-04 21:03 5.40795 -74.12388 22154 ft 432 kts 216°
2026-05-04 21:03 5.38616 -74.14449 22166 ft 431 kts 227°
2026-05-04 21:03 5.36630 -74.16704 22166 ft 430 kts 227°
2026-05-04 21:03 5.34646 -74.18957 22150 ft 430 kts 227°
2026-05-04 21:04 5.32666 -74.21205 22160 ft 430 kts 227°
2026-05-04 21:04 5.30682 -74.23452 22122 ft 429 kts 227°
2026-05-04 21:04 5.28699 -74.25668 21658 ft 425 kts 224°
2026-05-04 21:04 5.26394 -74.27478 21019 ft 421 kts 208°
2026-05-04 21:05 5.23730 -74.28679 20341 ft 419 kts 199°
2026-05-04 21:05 5.21032 -74.29758 19749 ft 417 kts 199°
2026-05-04 21:05 5.18379 -74.30815 19233 ft 414 kts 199°
2026-05-04 21:05 5.15712 -74.31873 18714 ft 411 kts 199°
2026-05-04 21:06 5.13052 -74.32925 17865 ft 415 kts 199°
2026-05-04 21:06 5.10333 -74.33998 16975 ft 421 kts 199°
2026-05-04 21:06 5.07631 -74.35067 16222 ft 412 kts 199°
2026-05-04 21:06 5.04981 -74.36121 15057 ft 407 kts 200°
2026-05-04 21:07 5.02357 -74.37164 13984 ft 403 kts 200°
2026-05-04 21:07 4.99752 -74.38198 13270 ft 401 kts 200°
2026-05-04 21:07 4.97200 -74.39211 13022 ft 388 kts 199°
2026-05-04 21:07 4.94751 -74.40177 12850 ft 366 kts 197°
2026-05-04 21:08 4.92383 -74.40604 12829 ft 329 kts 176°
2026-05-04 21:08 4.90256 -74.40228 12841 ft 297 kts 158°
2026-05-04 21:08 4.88494 -74.39263 12403 ft 285 kts 139°
2026-05-04 21:08 4.87025 -74.37999 12268 ft 273 kts 135°
2026-05-04 21:09 4.85776 -74.36600 12154 ft 265 kts 128°
2026-05-04 21:09 4.84692 -74.35141 12081 ft 256 kts 122°
2026-05-04 21:09 4.83717 -74.33687 11987 ft 246 kts 124°
2026-05-04 21:09 4.82736 -74.32351 11925 ft 232 kts 126°
2026-05-04 21:10 4.81780 -74.31090 11718 ft 222 kts 126°
2026-05-04 21:10 4.80860 -74.29878 11449 ft 216 kts 126°
2026-05-04 21:10 4.79966 -74.28696 11192 ft 210 kts 126°
2026-05-04 21:10 4.79095 -74.27546 10941 ft 205 kts 126°
2026-05-04 21:11 4.78246 -74.26424 10683 ft 199 kts 126°
2026-05-04 21:11 4.77421 -74.25335 10463 ft 193 kts 126°
2026-05-04 21:11 4.76624 -74.24281 10247 ft 185 kts 126°
2026-05-04 21:11 4.75871 -74.23286 10013 ft 175 kts 127°
2026-05-04 21:12 4.75151 -74.22336 9793 ft 168 kts 126°
2026-05-04 21:12 4.74452 -74.21412 9573 ft 163 kts 127°
2026-05-04 21:12 4.73782 -74.20527 9348 ft 157 kts 127°
2026-05-04 21:12 4.73124 -74.19658 9116 ft 155 kts 126°
2026-05-04 21:13 4.72477 -74.18802 8885 ft 152 kts 124°
2026-05-04 21:13 4.71835 -74.17946 8691 ft 155 kts 125°
2026-05-04 21:13 4.71185 -74.17092 8454 ft 153 kts 123°
2026-05-04 21:13 4.70567 -74.16265 8376 ft 135 kts 127°
2026-05-04 21:14 4.70104 -74.15660 8370 ft 86 kts 127°
2026-05-04 21:14 4.69824 -74.15289 8373 ft 56 kts 126°
2026-05-04 21:14 4.69715 -74.14993 8373 ft 28 kts 97°
2026-05-04 21:14 4.69740 -74.14832 8373 ft 22 kts 47°
2026-05-04 21:15 4.69844 -74.14750 8373 ft 17 kts 39°
2026-05-04 21:15 4.69823 -74.14677 8373 ft 11 kts 125°
2026-05-04 21:15 4.69775 -74.14612 8373 ft 12 kts 127°
2026-05-04 21:15 4.69725 -74.14546 8371 ft 12 kts 128°
2026-05-04 21:16 4.69682 -74.14482 8373 ft 8 kts 95°
2026-05-04 21:16 4.69714 -74.14449 8373 ft 3 kts 37°
2026-05-04 21:16 4.69718 -74.14445 8373 ft 0 kts 37°